EW5960 Weather Reports


time (UTC)temp
C
wind
direction
speed
KPH
gust
KPH
rain 1hr
cm
rain 24hr
cm
rain mn
cm
humidity
%
barometer
mb
20260503051015 11 173 8.0 14.5 0.00 0.00 0.00 56 1010.8
20260503050015 11 181 9.7 14.5 0.00 0.00 0.00 56 1010.9
20260503045015 11 172 8.0 11.3 0.00 0.00 0.00 55 1011.0
20260503044015 11 191 8.0 12.9 0.00 0.00 0.00 57 1011.1
20260503043015 11 202 9.7 14.5 0.00 0.00 0.00 58 1011.2
20260503042015 11 226 9.7 14.5 0.00 0.00 0.00 59 1011.3
20260503041015 11 241 4.8 11.3 0.00 0.00 0.00 59 1011.4
20260503040015 11 191 11.3 17.7 0.00 0.00 0.00 55 1011.6
20260503035015 11 156 11.3 16.1 0.00 0.00 0.00 54 1011.5
20260503034015 11 168 8.0 12.9 0.00 0.00 0.00 54 1011.6
20260503033015 11 199 8.0 12.9 0.00 0.00 0.00 57 1011.7
20260503032015 11 203 6.4 12.9 0.00 0.00 0.00 56 1011.9
20260503031015 11 210 4.8 11.3 0.00 0.00 0.00 55 1011.9
20260503030015 11 157 8.0 11.3 0.00 0.00 0.00 54 1012.0
20260503024055 11 171 6.4 9.7 0.00 0.00 0.00 54 1012.1
20260503023015 12 158 6.4 9.7 0.00 0.00 0.00 52 1012.2
20260503022015 12 172 6.4 9.7 0.00 0.00 0.00 53 1012.2
20260503021015 12 171 6.4 9.7 0.00 0.00 0.00 53 1012.3
20260503020015 12 158 6.4 8.0 0.00 0.00 0.00 52 1012.3
20260503015015 12 164 4.8 6.4 0.00 0.00 0.00 52 1012.4
20260503014015 12 162 6.4 9.7 0.00 0.00 0.00 53 1012.2
20260503013015 12 216 6.4 8.0 0.00 0.00 0.00 55 1012.2
20260503012015 12 226 6.4 11.3 0.00 0.00 0.00 54 1012.3
20260503011015 12 206 8.0 11.3 0.00 0.00 0.00 53 1012.2
20260503010015 12 228 4.8 9.7 0.00 0.00 0.00 55 1012.2
20260503005015 12 239 6.4 11.3 0.00 0.00 0.00 54 1012.3
20260503004015 12 258 3.2 8.0 0.00 0.00 0.00 53 1012.3
20260503003015 12 250 6.4 8.0 0.00 0.00 0.00 52 1012.4
20260503002135 13 270 1.6 11.3 0.00 0.00 0.00 50 1012.6
20260503001015 13 268 3.2 9.7 0.00 0.00 0.00 49 1012.6
20260502235014 13 267 3.2 14.5 0.00 0.00 0.00 47 1012.9
20260502234015 13 262 3.2 14.5 0.00 0.00 0.00 48 1012.7
20260502233015 14 269 3.2 9.7 0.00 0.00 0.00 45 1012.8
20260502232014 15 243 1.6 19.3 0.00 0.00 0.00 42 1012.9
20260502231055 15 271 4.8 19.3 0.00 0.00 0.00 42 1012.9
20260502230015 15 274 3.2 9.7 0.00 0.00 0.00 42 1013.0
20260502225015 15 273 4.8 16.1 0.00 0.00 0.00 43 1013.1
20260502224015 15 269 4.8 12.9 0.00 0.00 0.00 43 1013.2
20260502223014 14 275 1.6 6.4 0.00 0.00 0.00 42 1013.2
20260502222017 14 255 1.6 12.9 0.00 0.00 0.00 41 1013.2
20260502221056 15 265 4.8 22.5 0.00 0.00 0.00 41 1013.3
20260502220016 15 256 6.4 19.3 0.00 0.00 0.00 40 1013.4
20260502215016 15 255 3.2 12.9 0.00 0.00 0.00 38 1013.5
20260502214017 15 261 6.4 19.3 0.00 0.00 0.00 40 1013.7
20260502213016 15 269 3.2 17.7 0.00 0.00 0.00 38 1013.9
20260502212016 15 254 1.6 14.5 0.00 0.00 0.00 38 1013.8
20260502211056 15 224 6.4 19.3 0.00 0.00 0.00 36 1014.0
20260502210016 15 255 6.4 22.5 0.00 0.00 0.00 37 1014.0
20260502204016 15 256 8.0 24.1 0.00 0.00 0.00 38 1014.3
20260502203016 15 258 4.8 19.3 0.00 0.00 0.00 40 1014.4
20260502202056 15 235 4.8 14.5 0.00 0.00 0.00 36 1014.7
20260502201056 15 268 4.8 14.5 0.00 0.00 0.00 38 1014.8
20260502200016 15 192 11.3 19.3 0.00 0.00 0.00 37 1015.0
20260502195016 15 259 4.8 17.7 0.00 0.00 0.00 38 1015.2
20260502194016 15 258 4.8 16.1 0.00 0.00 0.00 39 1015.3
20260502193016 14 257 6.4 17.7 0.00 0.00 0.00 39 1015.3
20260502192016 14 220 6.4 16.1 0.00 0.00 0.00 39 1015.6
20260502191055 14 256 4.8 19.3 0.00 0.00 0.00 39 1015.7
20260502190015 13 223 9.7 20.9 0.00 0.00 0.00 37 1015.8
20260502185015 15 237 3.2 11.3 0.00 0.00 0.00 40 1016.0
20260502184015 14 251 3.2 14.5 0.00 0.00 0.00 41 1016.1
20260502183055 13 294 3.2 14.5 0.00 0.00 0.00 38 1016.1
20260502182015 14 244 8.0 16.1 0.00 0.00 0.00 39 1016.3
20260502181015 14 264 3.2 12.9 0.00 0.00 0.00 39 1016.5
20260502164055 12 265 1.6 16.1 0.00 0.00 0.00 40 1017.7
20260502163015 12 284 3.2 12.9 0.00 0.00 0.00 40 1017.8
20260502162015 12 277 3.2 11.3 0.00 0.00 0.00 42 1017.9
20260502161015 12 268 3.2 6.4 0.00 0.00 0.00 41 1018.0
20260502152015 10 257 3.2 11.3 0.00 0.00 0.00 49 1018.5
20260502151017 10 0.0 0.0 0.00 0.00 0.00 50 1018.4
20260502150959 9 225 3.2 6.4 0.00 0.00 0.00 53 1018.6